Location: *
(45.8000°N, 13.5333°E)
Time: 18:17:09
(UTC+00:00)

Daily predictions for brighter satellites

Satellite Brightness Start Highest point End
(mag) Time Altitude Azimuth Time Altitude Azimuth Time Altitude Azimuth
Unknown 4.3 16:42:12 10° W 16:46:15 51° NNW 16:50:18 10° NE
Cosmos 1271 Rocket 2.7 16:42:35 10° N 16:46:34 71° E 16:50:33 10° SSE
Unknown 4.3 16:43:38 10° W 16:47:40 49° NNW 16:51:42 10° NE
Unknown 4.4 16:44:12 10° W 16:48:13 46° NNW 16:52:14 10° NE
CZ-4 R/B 2.0 16:44:27 10° SE 16:48:19 38° ENE 16:52:14 10° N
Unknown 4.4 16:45:51 10° W 16:49:51 46° NNW 16:53:53 10° NE
SKYMED 2 4.0 16:46:01 10° NNE 16:50:08 39° E 16:54:12 10° SSE
Unknown 4.4 16:48:56 10° W 16:52:57 47° NNW 16:56:58 10° NE
YAOGAN 1 3.2 16:49:21 10° SE 16:53:16 34° ENE 16:57:11 10° N
Cosmos 2285 Rocket 4.4 16:49:03 10° NNW 16:55:30 75° WSW 17:01:52 10° SSE
Unknown 4.4 16:52:16 10° W 16:56:16 46° NNW 17:00:18 10° NE
Meteor 2-10 4.3 16:52:09 10° SSE 16:56:54 42° E 17:01:37 10° NNE
Unknown 4.4 16:53:59 10° W 16:57:59 45° NNW 17:01:59 10° NE
Unknown 4.5 16:55:38 10° W 16:59:37 44° NNW 17:03:37 10° NE
Unknown 4.5 16:57:19 10° W 17:01:18 44° NNW 17:05:18 10° NE
H-2A R/B 3.9 16:58:24 10° S 17:02:10 50° W 17:06:01 10° NNW
Cosmos 1726 Rocket 3.5 16:59:43 10° S 17:04:06 84° E 17:08:30 10° N
SL-4 R/B 3.6 17:00:50 10° WNW 17:04:18 30° SW 17:07:31 10° SSE
Cosmos 2082 Rocket 3.3 17:00:06 10° N 17:04:51 26° NE 17:09:12 12° ESE
Cosmos 2228 3.1 17:01:35 10° S 17:05:59 88° WNW 17:10:21 10° N
YAOGAN 6 2.6 17:05:32 10° SSE 17:09:07 57° ENE 17:12:42 10° N
CSL-04 Debris 4.3 17:03:59 10° SSE 17:09:17 57° ENE 17:14:40 10° N
Envisat 3.0 17:05:30 10° SSE 17:10:36 90° NW 17:15:43 10° NNW
Gbstr 26 Del rocket 4.2 17:05:15 10° WNW 17:11:04 60° NNE 17:17:13 14° E
Shenzhou-11 Module 2.5 17:08:41 10° WSW 17:11:21 44° S 17:13:13 17° ESE
Cosmos 1703 3.4 17:07:54 10° N 17:11:47 52° ENE 17:15:36 10° SSE
ASTEX 1 3.4 17:07:10 10° N 17:12:08 70° E 17:17:05 10° S
COSMOS 2406 3.2 17:06:58 10° NNW 17:12:45 74° ENE 17:18:29 10° SSE
EO 1 Delta rocket 4.0 17:10:58 10° SSE 17:15:23 48° ENE 17:20:06 10° N
Cosmos 921 Rocket 3.2 17:10:53 10° SSW 17:15:24 84° WNW 17:19:54 10° NNE
Cosmos 2084 4.5 17:11:01 10° WSW 17:15:25 48° NW 17:19:44 10° NNE
Cosmos 292 Rocket 3.7 17:13:21 10° S 17:18:03 67° ESE 17:22:46 10° NNE
FALCON 9 DEB 4.4 17:15:18 10° NW 17:18:24 29° NNE 17:20:20 18° ENE
Unknown 4.2 17:17:06 10° NW 17:20:11 30° NNE 17:21:58 19° ENE
Cosmos 2058 Rocket 3.0 17:17:37 10° S 17:21:59 84° E 17:26:22 10° N
Cosmos 1844 Rocket 3.6 17:16:30 10° SW 17:21:59 51° WNW 17:27:30 10° NNE
Cosmos 1356 3.3 17:19:47 10° S 17:23:13 80° E 17:26:40 10° NNE
Cosmos 1953 4.0 17:20:57 10° SW 17:24:44 37° WNW 17:28:33 10° N
Cosmos 2058 4.4 17:22:36 10° NNE 17:25:24 18° ENE 17:25:24 18° ENE
Cosmos 1339 Rocket 4.5 17:20:18 10° SSE 17:26:12 56° E 17:32:12 10° NNE
Unknown 4.4 17:24:09 10° NW 17:27:18 29° NNE 17:28:53 20° ENE
Okean-O 4.4 17:25:41 10° SSW 17:29:44 35° W 17:33:50 10° NNW
FengYun 1-2 T 4.5 17:26:23 10° S 17:32:01 77° WSW 17:37:40 10° NNW
USA 116 3.1 17:29:34 10° NNE 17:32:44 68° ESE 17:36:06 10° S
Meteor 1-11 4.2 17:27:33 10° N 17:33:21 79° ENE 17:39:09 10° SSE
Meteor 1-16 Rocket 4.5 17:30:57 10° SSW 17:36:29 69° WNW 17:41:53 10° N
Falcon 9 debris 4.1 17:33:45 10° NW 17:36:57 35° NNE 17:38:02 27° ENE
BREEZE-M DEB (TANK) 3.9 17:32:45 10° WNW 17:37:14 84° NNE 17:47:34 15° ESE
COSMO-SKYMED 1 3.0 17:33:58 10° N 17:38:17 65° WNW 17:42:34 10° SSW
Lacrosse 5 2.3 17:34:25 10° NW 17:39:17 45° NNE 17:41:43 26° E
Cosmos 1605 Rocket 3.9 17:33:31 10° N 17:39:45 80° E 17:45:52 10° S
USA 238 DEB 4.0 17:34:29 10° S 17:40:42 43° ESE 17:46:22 13° NE
Cosmos 1908 3.1 17:36:53 10° S 17:40:47 87° E 17:44:42 10° N
USA 238 4.0 17:34:36 10° S 17:40:49 43° ESE 17:46:25 14° NE
SJ 16-02 3.5 17:39:33 10° NNE 17:40:24 12° NE 17:40:24 12° NE
Cosmos 2278 Rocket 2.1 17:40:12 10° SSW 17:45:49 68° ESE 17:51:28 10° NNE
ATLAS 5 CENTAUR R/B 3.8 17:44:11 10° W 17:47:46 23° NNW 17:51:42 10° NNE
Cosmos 1727 Rocket 4.0 17:43:01 10° S 17:49:02 59° E 17:55:06 10° NNE
Unknown 4.0 17:46:47 10° NW 17:50:05 37° NNE 17:50:40 34° NE
IRS-1A Rocket 4.2 17:46:10 10° SSE 17:51:32 58° ENE 17:56:56 10° N
Ariane Rocket 2.9 17:48:09 10° SSE 17:53:12 66° ENE 17:58:17 10° N
Lacrosse 5 rocket 4.1 17:51:51 10° W 17:54:02 15° SW 17:56:17 10° SSW
Cosmos 1939 Rocket 2.7 17:54:15 10° SSE 17:58:13 85° ENE 18:02:17 10° NNW
Cosmos 2173 Rocket 4.2 17:53:29 10° N 17:59:29 45° ENE 18:02:39 26° SE
Abrixas rocket 2.1 17:57:59 10° WSW 18:00:46 63° SSW 18:00:46 63° SSW
Cosmos 1461 2.7 17:59:18 10° NNW 18:03:23 77° NE 18:04:27 49° SE
NOSS 3-2 (A) 3.5 18:00:18 10° SSW 18:05:48 50° ESE 18:08:34 30° ENE
Cosmos 1726 4.3 18:05:15 10° SW 18:08:24 27° WNW 18:11:35 10° NNW
Cosmos 2084 Rocket 4.0 18:06:49 10° NNW 18:11:03 42° NE 18:11:03 42° NE
Unknown 3.6 18:09:25 10° WNW 18:12:18 50° SW 18:12:18 50° SW
NOSS 3-3 (A) 4.5 18:05:23 10° NW 18:12:49 69° NE 18:16:52 32° ESE
NOSS 3-3 (C) 4.5 18:05:29 10° NW 18:12:54 68° NE 18:16:55 33° ESE
HJ-1C 3.6 18:14:01 64° NNW 18:14:01 64° NNW 18:16:56 10° NNW
NOAA 11 4.4 18:10:08 10° S 18:15:33 70° WSW 18:21:00 10° NNW
Cosmos 967 Rocket 4.4 18:10:07 10° NNW 18:16:37 76° NE 18:19:24 37° SE
SPOT 3 Rocket 3.9 18:17:55 44° ENE 18:17:55 44° ENE 18:22:42 10° N
ARGOS 3.8 18:19:44 37° NE 18:19:44 37° NE 18:24:07 10° N
Cosmos 1000 Rocket 4.5 18:13:34 10° SSE 18:19:33 54° E 18:25:37 10° NNE
Cosmos 1812 Rocket 3.6 18:15:41 10° S 18:20:06 81° W 18:24:35 10° N
Cosmos 2100 Rocket 3.8 18:15:51 10° N 18:22:02 70° E 18:25:38 26° SSE
CZ-4 R/B 4.1 18:20:16 10° SW 18:23:28 21° W 18:26:42 10° NW
SJ-11-01 4.1 18:24:11 68° E 18:24:27 70° ENE 18:29:08 10° N
Cosmos 1833 Rocket 3.0 18:19:30 10° NNW 18:25:04 65° WSW 18:28:56 20° S
Cosmos 1076 Rocket 3.5 18:21:33 10° N 18:25:56 81° W 18:27:01 51° S
BREEZE-M DEB (TANK) 2.6 18:18:51 10° WSW 18:27:47 76° SSE 18:28:00 73° ESE
NOSS 3-2 (C) 3.7 18:24:03 10° S 18:28:35 44° SE 18:28:35 44° SE
H-2A R/B 2.4 18:35:45 50° NE 18:35:45 50° NE 18:40:15 10° N
Cosmos 2016 Rocket 3.9 18:37:19 10° N 18:43:34 66° E 18:43:50 65° E
Meteor 2-1 Rocket 4.0 18:38:31 10° S 18:44:01 84° E 18:49:37 10° NNE
ADEOS Rocket 3.4 18:39:12 10° NNE 18:46:54 64° E 18:54:00 10° S
Cosmos 2082 Rocket 2.6 18:43:45 10° NNW 18:49:23 61° WSW 18:51:05 42° SSW
Cosmos 1898 Rocket 3.9 18:52:32 10° NNW 18:56:42 56° N 18:56:42 56° N
Gbstr 26 Del rocket 4.4 18:52:10 10° WNW 18:58:34 65° SW 18:59:47 56° S
Cosmos 2058 4.4 18:58:39 10° NNW 19:01:38 36° NW 19:01:38 36° NW
Cosmos 2061 Rocket 3.9 18:57:33 10° N 19:03:50 85° W 19:04:09 80° SSW
ATLAS 3B R/B 3.8 18:58:14 10° SSW 19:01:17 28° S 19:01:17 28° S
CZ-2C R/B 4.1 19:12:02 42° N 19:12:02 42° N 19:15:49 10° N
CENTAUR R/B 4.2 19:09:47 10° SSW 19:11:09 18° SSW 19:11:09 18° SSW
SJ 16-02 3.7 19:16:12 10° NNW 19:17:24 18° NNW 19:17:24 18° NNW
Lacrosse 5 3.2 19:17:29 10° WNW 19:20:56 36° W 19:20:56 36° W
Resurs 01 Rocket 4.4 19:32:43 12° NNW 19:32:43 12° NNW 19:33:06 10° NNW
Cosmos 2278 Rocket 4.3 19:25:55 10° W 19:30:26 24° NW 19:34:58 10° N
USA 238 DEB 4.4 19:25:05 10° WSW 19:31:36 49° NW 19:33:52 37° N
USA 238 4.4 19:25:11 10° WSW 19:31:42 49° NW 19:33:55 37° N
H-2A R/B 4.4 20:16:22 20° WNW 20:16:22 20° WNW 20:18:54 10° NW
